CAPE
905 770 656 800 810 716 743 756 844 768 517 502 517 526 511 543 628 600 614 769 2139 2123 1738 1815 1592 1874 1175 748 808 1173 873 708 660 684 716 500 746 719 748 404 359 504 745
1067 860 772 735 700 638 580 731 737 533 208 231 248 259 321 308 357 366 499 631 1140 2148 2407 1823 1808 1726 1816 1185 995 998 1025 1086 1121 979 1267 1545 1199 1158 1030 724 453 411 877
1232 1145 964 838 685 601 470 396 445 432 372 234 136 115 69 110 191 217 395 627 777 1065 1569 2360 2212 2146 1691 1855 1371 1387 1793 1577 1807 1520 1482 1478 1492 1545 1600 1433 1201 1250 1423
1372 1352 1027 659 606 544 532 528 493 353 265 149 123 139 95 90 133 152 236 362 636 744 1304 1560 2359 2133 1763 1721 1940 1918 1983 1843 1622 1789 1934 1732 1623 1710 1595 1519 1621 1642 1626
1061 908 821 700 633 659 655 523 386 349 297 224 203 298 186 197 187 180 185 204 214 469 568 832 1696 1957 1615 1489 1794 2019 1807 1945 2071 1927 1866 2196 2070 1918 1819 1701 1933 1987 1862
899 712 743 766 803 638 514 370 360 325 281 284 319 255 133 59 72 102 120 224 303 369 451 798 1476 1306 1485 1682 1744 1770 1902 1816 1763 1962 1932 2120 2174 2068 1903 1751 1704 1651 1787
893 846 783 636 468 466 318 359 319 280 216 247 217 129 44 17 9 0 31 154 0 36 430 928 1164 1358 1236 1189 1647 1858 1781 2001 2075 1844 1855 1822 1979 2234 2081 1802 1714 1692 1577
1001 894 539 338 490 477 182 108 131 143 219 301 171 14 17 44 95 16 25 16 0 0 7 110 331 363 548 898 989 1184 1631 1810 2015 2176 2043 1799 1815 1904 1992 1964 1795 1735 1649
916 659 446 434 427 64 46 33 54 144 245 256 217 152 5 4 15 31 19 0 0 0 0 0 8 44 186 372 343 461 623 1040 1187 1558 1831 1834 1733 1676 1709 1953 1800 1640 1475
911 607 24 30 8 8 62 26 156 234 202 61 128 175 99 174 39 9 0 0 0 0 0 0 0 0 30 62 15 106 273 462 486 607 917 1656 1518 1699 1803 1957 1989 1728 1524
1004 0 0 0 9 85 18 0 30 59 85 87 20 14 2 0 21 0 0 0 0 0 0 0 0 0 0 0 0 0 0 0 0 118 578 700 773 1692 1987 2056 2263 2096 1963
6 0 0 0 51 38 0 0 0 1 6 33 71 0 0 0 0 0 0 0 0 0 0 0 0 0 0 0 0 0 0 0 0 0 0 104 641 844 1049 2036 2040 2196 2369
0 0 0 0 11 0 0 0 0 0 0 0 4 0 0 0 0 0 0 0 1 0 0 0 0 0 0 0 0 0 0 0 0 0 0 0 51 365 788 1438 1816 1993 2088
0 0 11 1 0 0 0 0 0 0 0 0 17 0 0 0 0 0 0 0 0 0 0 0 0 0 0 0 0 0 0 0 0 0 0 0 0 8 159 384 878 1197 1391
0 0 0 0 0 0 0 0 0 0 0 0 0 0 0 38 65 19 0 0 0 0 0 0 0 0 0 0 0 0 0 0 0 0 0 0 0 1 7 15 52 165 626
0 0 0 0 0 0 0 0 0 0 0 0 0 0 5 50 80 49 16 0 0 0 0 0 0 0 0 0 0 0 0 0 0 0 0 0 0 0 5 7 0 18 23
0 0 0 0 0 0 0 0 0 0 0 0 23 42 37 48 59 69 51 30 18 0 0 0 0 0 0 0 0 0 0 0 0 0 0 0 0 0 0 2 5 0 0
0 0 0 0 0 0 0 0 0 0 0 0 38 44 61 50 36 50 62 56 41 29 42 0 0 0 0 0 0 0 0 0 0 0 0 0 0 0 0 0 0 0 0
0 0 0 0 0 0 0 0 0 0 0 0 27 40 50 58 27 6 0 20 59 66 74 45 0 0 0 0 0 0 0 0 0 0 0 0 0 0 0 0 0 0 0
0 0 0 0 0 0 0 0 0 0 0 0 24 49 29 16 5 5 0 0 25 29 49 37 4 0 1 0 0 0 0 0 0 0 0 0 0 0 0 0 0 0 0
0 2 0 0 0 0 0 0 0 0 0 32 38 19 0 0 22 27 16 31 0 17 37 19 1 0 0 0 0 0 0 0 0 0 0 0 1 5 12 1 0 0 0
141 38 23 1 1 0 0 0 0 5 26 33 10 0 0 2 6 2 23 63 88 82 91 38 0 1 0 1 0 0 3 3 4 3 12 0 0 0 16 4 0 25 0
363 113 43 12 5 13 19 12 23 22 18 19 18 0 5 0 12 3 0 4 34 53 93 178 3 5 8 0 7 13 10 9 11 0 1 0 0 0 14 6 0 1 1
104 64 86 97 37 94 139 113 144 66 45 32 25 15 11 4 5 0 0 6 11 17 6 0 0 0 1 6 12 7 12 0 13 8 0 0 0 0 0 14 0 1 3
250 147 153 156 119 152 195 243 85 98 30 26 24 0 0 1 1 0 0 0 0 0 0 0 0 0 0 0 0 0 0 0 17 0 0 0 0 0 0 0 13 0 3
444 237 256 134 160 206 273 124 122 38 38 0 0 0 0 0 0 0 0 0 0 0 0 0 0 0 0 0 0 0 22 13 0 0 0 0 2 4 0 0 0 0 4
CIN
-38 -35 -22 -41 -61 -56 -52 -43 -37 -34 -50 -102 -97 -94 -92 -94 -88 -91 -41 -82 -20 -11 -9 -3 -1 -1 -0 -2 -2 -0 -2 -0 -0 -0 -0 -2 -0 -0 -0 -0 -1 -0 -0
-32 -21 -11 -28 -9 -32 -76 -51 -35 -60 -82 -73 -110 -116 -105 -119 -127 -124 -37 -96 -53 -12 -4 -8 -3 -5 -0 -0 -0 -0 -0 -0 -0 -0 -0 -0 -0 -0 -0 -0 -1 -1 -0
-25 -22 -20 -14 -16 -19 -30 -43 -44 -39 -45 -89 -137 -170 -180 -154 -129 -137 -99 -82 -72 -50 -25 -5 -7 -3 -8 -0 -1 -0 -0 -0 -0 -0 -0 -0 -0 -0 -0 -0 -0 -0 -0
-20 -12 -16 -37 -27 -31 -27 -35 -25 -46 -82 -137 -158 -148 -214 -211 -113 -82 -106 -89 -67 -52 -42 -28 -4 -6 -4 -3 -0 -1 -1 -0 -1 -0 -0 -0 -0 -0 -0 -0 -0 -0 -0
-4 -23 -26 -16 -15 -6 -25 -23 -27 -43 -94 -117 -129 -115 -178 -147 -153 -127 -125 -113 -108 -84 -78 -68 -25 -9 -5 -2 -1 -0 -2 -0 -0 -1 -1 -0 -0 -0 -0 -0 -0 -0 -0
-4 -14 -40 -24 -3 -20 -19 -27 -23 -46 -75 -78 -83 -171 -269 -317 -268 -224 -202 -100 -81 -78 -96 -78 -35 -44 -25 -3 -2 -4 -1 -2 -2 -0 -1 -0 -0 -0 -0 -0 -0 -0 -0
-11 -7 -3 -19 -27 -17 -26 -23 -53 -83 -121 -90 -116 -236 -344 -393 -479 -0 -307 -163 -0 -126 -73 -39 -30 -27 -40 -36 -14 -6 -3 -1 -1 -2 -2 -1 -0 -0 -0 -0 -0 -0 -0
-8 -4 -28 -38 -18 -11 -76 -137 -137 -158 -125 -106 -134 -257 -314 -349 -245 -354 -331 -251 -0 -0 -64 -102 -81 -78 -58 -29 -33 -21 -6 -4 -1 -0 -1 -5 -5 -1 -0 -0 -0 -0 -0
-3 -14 -34 -28 -20 -167 -186 -207 -167 -110 -113 -131 -148 -172 -173 -434 -403 -344 -357 -0 -0 -0 -0 -0 -57 -78 -99 -64 -83 -64 -40 -11 -10 -1 -1 -1 -6 -9 -8 -0 -0 -0 -0
-11 -16 -155 -174 -69 -197 -195 -272 -139 -121 -137 -230 -187 -168 -195 -123 -274 -253 -0 -0 -0 -0 -0 -0 -0 -0 -164 -131 -27 -135 -73 -32 -25 -21 -3 -0 -1 -2 -3 -0 -0 -0 -0
-23 -0 -0 -0 -166 -111 -143 -0 -238 -234 -222 -218 -342 -300 -184 -0 -279 -0 -0 -0 -0 -0 -0 -0 -0 -0 -0 -0 -0 -0 -0 -0 -0 -103 -3 -3 -3 -0 -0 -0 -0 -0 -0
-33 -0 -0 -0 -136 -162 -0 -0 -0 -29 -127 -260 -224 -0 -0 -0 -0 -0 -0 -0 -0 -0 -0 -0 -0 -0 -0 -0 -0 -0 -0 -0 -0 -0 -0 -83 -0 -0 -0 -0 -0 -0 -0
-0 -0 -0 -0 -97 -0 -0 -0 -0 -0 -0 -0 -6 -0 -0 -0 -0 -0 -0 -0 -0 -0 -0 -0 -0 -0 -0 -0 -0 -0 -0 -0 -0 -0 -0 -0 -91 -5 -0 -0 -0 -0 -0
-0 -0 -247 -13 -0 -0 -0 -0 -0 -0 -0 -0 -9 -0 -0 -0 -0 -0 -0 -0 -0 -0 -0 -0 -0 -0 -0 -0 -0 -0 -0 -0 -0 -0 -0 -0 -0 -8 -16 -5 -0 -1 -1
-0 -0 -0 -0 -0 -0 -0 -0 -0 -0 -0 -0 -0 -0 -0 -18 -14 -15 -0 -0 -0 -0 -0 -0 -0 -0 -0 -0 -0 -0 -0 -0 -0 -0 -0 -0 -0 -0 -0 -33 -59 -47 -2
-0 -0 -0 -0 -0 -0 -0 -0 -0 -0 -0 -0 -0 -0 -0 -19 -12 -12 -12 -0 -0 -0 -0 -0 -0 -0 -0 -0 -0 -0 -0 -0 -0 -0 -0 -0 -0 -0 -0 -0 -0 -42 -81
-0 -0 -0 -0 -0 -0 -0 -0 -0 -0 -0 -0 -6 -6 -9 -11 -17 -16 -10 -6 -5 -0 -0 -0 -0 -0 -0 -0 -0 -0 -0 -0 -0 -0 -0 -0 -0 -0 -0 -0 -0 -0 -0
-4 -0 -0 -0 -0 -0 -0 -0 -0 -0 -0 -0 -95 -20 -53 -22 -20 -23 -19 -10 -8 -5 -2 -0 -0 -0 -0 -0 -0 -0 -0 -0 -0 -0 -0 -0 -0 -0 -0 -0 -0 -0 -0
-0 -0 -0 -0 -0 -0 -0 -0 -0 -0 -0 -0 -133 -14 -61 -21 -28 -16 -0 -20 -13 -12 -7 -4 -0 -0 -0 -0 -0 -0 -0 -0 -0 -0 -0 -0 -0 -0 -0 -0 -0 -0 -0
-0 -0 -0 -0 -0 -0 -0 -0 -0 -0 -0 -0 -17 -28 -46 -57 -65 -40 -0 -0 -97 -38 -23 -19 -7 -0 -0 -0 -0 -0 -0 -0 -0 -0 -0 -0 -0 -0 -0 -0 -0 -0 -0
-0 -158 -0 -0 -0 -0 -0 -0 -0 -0 -0 -202 -142 -186 -0 -0 -113 -138 -83 -59 -0 -44 -25 -21 -35 -0 -0 -0 -0 -0 -0 -0 -0 -0 -0 -0 -0 -0 -0 -0 -0 -0 -0
-121 -168 -179 -93 -39 -0 -0 -0 -0 -55 -170 -157 -155 -0 -0 -4 -2 -48 -135 -87 -64 -107 -83 -30 -0 -0 -0 -0 -0 -0 -0 -0 -0 -0 -3 -0 -0 -0 -0 -2 -0 -2 -0
-103 -171 -146 -133 -144 -119 -123 -59 -30 -189 -28 -23 -16 -1 -11 -0 -1 -2 -0 -168 -120 -40 -50 -8 -0 -0 -0 -0 -0 -0 -0 -1 -2 -0 -0 -0 -0 -0 -0 -0 -0 -0 -0
-110 -138 -106 -98 -111 -80 -60 -24 -14 -12 -49 -38 -34 -18 -16 -4 -4 -0 -0 -99 -56 -41 -15 -0 -0 -0 -0 -0 -0 -0 -0 -0 -8 -0 -0 -0 -0 -0 -0 -0 -0 -0 -0
-61 -54 -52 -68 -56 -63 -58 -41 -30 -55 -47 -72 -49 -0 -0 -1 -5 -0 -0 -0 -10 -0 -0 -0 -0 -0 -0 -0 -0 -0 -0 -0 -1 -0 -0 -0 -0 -0 -0 -0 -0 -0 -0
-26 -39 -28 -59 -36 -22 -18 -31 -19 -90 -93 -0 -0 -0 -0 -0 -0 -0 -0 -0 -0 -0 -0 -0 -0 -0 -0 -0 -0 -0 -14 -0 -0 -0 -0 -0 -0 -0 -0 -0 -0 -0 -2
Wind_Speed
10 9 11 12 13 13 9 9 11 9 8 7 7 6 4 4 7 10 8 6 6 4 6 5 10 6 7 5 4 5 7 5 5 5 10 9 8 8 7 7 7 8 8
9 10 10 11 14 13 12 11 11 11 10 9 9 9 9 8 6 8 9 9 7 7 4 6 8 7 3 3 3 5 4 7 3 3 5 5 6 8 9 8 7 7 7
10 9 8 10 10 10 12 11 12 12 12 12 12 11 nan 13 9 6 9 12 11 8 10 8 10 10 7 3 3 2 3 3 6 4 3 3 4 7 8 8 7 6 6
11 12 10 9 9 10 11 11 11 12 13 14 12 11 nan nan 13 11 7 10 13 15 11 14 10 13 11 6 1 3 3 4 6 4 3 3 2 4 6 7 8 6 5
9 11 10 11 11 10 11 12 13 14 14 14 14 13 13 13 14 14 12 10 8 11 13 12 15 12 11 9 8 5 5 3 3 5 4 4 4 1 3 4 5 5 5
10 12 13 13 14 13 14 15 15 15 15 16 15 13 13 nan nan 14 13 13 12 9 10 14 18 23 18 12 13 13 9 8 4 4 5 5 4 4 2 2 2 3 3
12 15 15 15 16 16 15 15 16 14 15 18 19 17 nan nan nan nan nan 15 nan nan 14 14 19 22 26 26 22 16 13 13 10 7 6 5 5 6 5 3 3 2 1
16 17 18 18 19 18 16 16 16 14 14 16 20 nan nan nan nan nan nan nan nan nan nan 16 17 20 27 30 29 28 24 19 15 13 11 10 8 6 5 7 5 3 1
19 20 21 20 20 nan nan nan nan 21 18 17 18 21 nan nan nan nan nan nan nan nan nan nan nan nan 23 28 33 34 33 31 28 22 17 15 13 10 7 5 7 5 2
25 24 nan nan nan nan nan nan 21 21 21 nan 21 21 nan 22 nan nan nan nan nan nan nan nan nan nan nan nan nan 36 37 36 34 35 31 26 20 15 12 10 7 6 5
27 nan nan nan nan nan nan nan nan nan nan nan nan nan nan nan nan nan nan nan nan nan nan nan nan nan nan nan nan nan nan nan nan 41 37 34 31 25 19 15 12 9 6
nan nan nan nan nan nan nan nan nan nan nan nan nan nan nan nan nan nan nan nan nan nan nan nan nan nan nan nan nan nan nan nan nan nan nan 40 35 35 28 21 16 14 11
nan nan nan nan nan nan nan nan nan nan nan nan nan nan nan nan nan nan nan nan nan nan nan nan nan nan nan nan nan nan nan nan nan nan nan nan nan 38 36 32 25 19 16
nan nan nan nan nan nan nan nan nan nan nan nan nan nan nan nan nan nan nan nan nan nan nan nan nan nan nan nan nan nan nan nan nan nan nan nan nan nan 39 37 34 26 21
nan nan nan nan nan nan nan nan nan nan nan nan nan nan nan nan nan nan nan nan nan nan nan nan nan nan nan nan nan nan nan nan nan nan nan nan nan nan nan nan nan 35 30
nan nan nan nan nan nan nan nan nan nan nan nan nan nan nan nan nan nan nan nan nan nan nan nan nan nan nan nan nan nan nan nan nan nan nan nan nan nan nan nan nan nan nan
nan nan nan nan nan nan nan nan nan nan nan nan nan nan nan nan nan nan nan nan nan nan nan nan nan nan nan nan nan nan nan nan nan nan nan nan nan nan nan nan nan nan nan
nan nan nan nan nan nan nan nan nan nan nan nan nan nan nan nan nan nan nan nan nan nan nan nan nan nan nan nan nan nan nan nan nan nan nan nan nan nan nan nan nan nan nan
nan nan nan nan nan nan nan nan nan nan nan nan nan nan nan nan nan nan nan nan nan nan nan nan nan nan nan nan nan nan nan nan nan nan nan nan nan nan nan nan nan nan nan
nan nan nan nan nan nan nan nan nan nan nan nan nan nan nan nan nan nan nan nan nan nan nan nan nan nan nan nan nan nan nan nan nan nan nan nan nan nan nan nan nan nan nan
nan nan nan nan nan nan nan nan nan nan nan nan nan nan nan nan nan nan nan nan nan nan nan nan nan nan nan nan nan nan nan nan nan nan nan nan nan nan nan nan nan nan nan
42 nan nan nan nan nan nan nan nan nan nan nan nan nan nan nan nan nan nan nan nan nan nan nan nan nan nan nan nan nan nan nan nan nan nan nan nan nan nan nan nan nan nan
41 42 nan nan nan nan nan nan nan nan nan nan nan nan nan nan nan nan nan nan nan nan nan 32 nan nan nan nan nan nan nan nan nan nan nan nan nan nan nan nan nan nan nan
36 nan nan nan nan nan 52 34 32 nan nan nan nan nan nan nan nan nan nan nan nan nan nan nan nan nan nan nan nan nan nan nan nan nan nan nan nan nan nan nan nan nan nan
40 42 32 45 50 38 53 40 nan nan nan nan nan nan nan nan nan nan nan nan nan nan nan nan nan nan nan nan nan nan nan nan nan nan nan nan nan nan nan nan nan nan nan
51 43 46 48 41 37 35 35 39 nan nan nan nan nan nan nan nan nan nan nan nan nan nan nan nan nan nan nan nan nan nan nan nan nan nan nan nan nan nan nan nan nan nan
Wind_Direction
56 62 44 40 40 37 28 14 12 14 15 20 17 6 351 309 290 292 271 206 208 264 254 247 296 297 299 323 18 24 19 50 66 73 64 61 59 75 82 76 77 76 86
62 53 47 39 31 29 32 33 32 29 31 27 24 5 6 7 355 318 301 276 239 227 268 250 262 291 295 317 348 1 48 358 51 88 92 62 68 61 72 81 84 80 85
38 34 33 37 25 21 25 25 24 17 16 18 26 19 nan 9 5 343 311 305 285 246 222 245 260 272 282 292 353 312 339 351 354 10 40 63 73 83 81 78 76 86 90
20 11 9 9 5 360 357 5 1 4 354 354 3 13 nan nan 2 7 349 294 289 279 254 230 258 265 272 275 206 299 299 325 335 342 27 9 14 71 78 82 73 65 98
1 348 352 348 349 341 342 346 345 346 343 338 341 352 354 358 360 357 12 1 312 290 277 260 238 251 266 264 248 215 256 274 294 320 327 316 319 1 56 68 85 80 75
344 335 336 338 332 333 338 341 343 340 339 332 331 336 335 nan nan 341 338 335 339 319 294 276 266 251 239 255 243 238 220 245 235 256 279 301 303 320 356 30 42 66 82
324 322 322 319 318 323 323 324 323 330 327 322 325 323 nan nan nan nan nan 319 nan nan 305 292 276 263 257 245 249 257 230 229 247 236 239 261 287 286 300 319 334 334 358
325 324 318 318 318 311 308 304 312 315 319 322 322 nan nan nan nan nan nan nan nan nan nan 291 286 270 260 257 251 241 238 226 230 239 241 243 253 264 278 289 291 303 295
317 316 319 319 317 nan nan nan nan 323 327 327 319 319 nan nan nan nan nan nan nan nan nan nan nan nan 270 260 251 247 238 232 218 220 229 235 245 251 255 265 288 280 258
309 313 nan nan nan nan nan nan 319 320 323 nan 322 320 nan 312 nan nan nan nan nan nan nan nan nan nan nan nan nan 243 238 236 228 219 212 221 227 235 242 254 261 278 273
306 nan nan nan nan nan nan nan nan nan nan nan nan nan nan nan nan nan nan nan nan nan nan nan nan nan nan nan nan nan nan nan nan 226 222 213 213 218 227 234 241 252 266
nan nan nan nan nan nan nan nan nan nan nan nan nan nan nan nan nan nan nan nan nan nan nan nan nan nan nan nan nan nan nan nan nan nan nan 221 215 212 211 224 231 231 243
nan nan nan nan nan nan nan nan nan nan nan nan nan nan nan nan nan nan nan nan nan nan nan nan nan nan nan nan nan nan nan nan nan nan nan nan nan 218 217 220 223 229 225
nan nan nan nan nan nan nan nan nan nan nan nan nan nan nan nan nan nan nan nan nan nan nan nan nan nan nan nan nan nan nan nan nan nan nan nan nan nan 221 220 222 223 228
nan nan nan nan nan nan nan nan nan nan nan nan nan nan nan nan nan nan nan nan nan nan nan nan nan nan nan nan nan nan nan nan nan nan nan nan nan nan nan nan nan 223 224
nan nan nan nan nan nan nan nan nan nan nan nan nan nan nan nan nan nan nan nan nan nan nan nan nan nan nan nan nan nan nan nan nan nan nan nan nan nan nan nan nan nan nan
nan nan nan nan nan nan nan nan nan nan nan nan nan nan nan nan nan nan nan nan nan nan nan nan nan nan nan nan nan nan nan nan nan nan nan nan nan nan nan nan nan nan nan
nan nan nan nan nan nan nan nan nan nan nan nan nan nan nan nan nan nan nan nan nan nan nan nan nan nan nan nan nan nan nan nan nan nan nan nan nan nan nan nan nan nan nan
nan nan nan nan nan nan nan nan nan nan nan nan nan nan nan nan nan nan nan nan nan nan nan nan nan nan nan nan nan nan nan nan nan nan nan nan nan nan nan nan nan nan nan
nan nan nan nan nan nan nan nan nan nan nan nan nan nan nan nan nan nan nan nan nan nan nan nan nan nan nan nan nan nan nan nan nan nan nan nan nan nan nan nan nan nan nan
nan nan nan nan nan nan nan nan nan nan nan nan nan nan nan nan nan nan nan nan nan nan nan nan nan nan nan nan nan nan nan nan nan nan nan nan nan nan nan nan nan nan nan
308 nan nan nan nan nan nan nan nan nan nan nan nan nan nan nan nan nan nan nan nan nan nan nan nan nan nan nan nan nan nan nan nan nan nan nan nan nan nan nan nan nan nan
297 309 nan nan nan nan nan nan nan nan nan nan nan nan nan nan nan nan nan nan nan nan nan 304 nan nan nan nan nan nan nan nan nan nan nan nan nan nan nan nan nan nan nan
299 nan nan nan nan nan 299 296 305 nan nan nan nan nan nan nan nan nan nan nan nan nan nan nan nan nan nan nan nan nan nan nan nan nan nan nan nan nan nan nan nan nan nan
289 292 291 317 319 278 296 291 nan nan nan nan nan nan nan nan nan nan nan nan nan nan nan nan nan nan nan nan nan nan nan nan nan nan nan nan nan nan nan nan nan nan nan
292 295 297 315 334 280 281 293 293 nan nan nan nan nan nan nan nan nan nan nan nan nan nan nan nan nan nan nan nan nan nan nan nan nan nan nan nan nan nan nan nan nan nan